sat.trackr.live / text

‹ back to catalog

2025-180E

NORAD 65263 · 2025-180E

PAYLOAD ACTIVE UNKNOWN

§ Identity

Operator
Country
TBD
Launch date
2025-08-19
Launch site
JSC
Launch vehicle
Mass (kg)
RCS (m²)

External: N2YO · Heavens-Above · Gunter

§ Orbital elements

Epoch: 2026-05-25T05:43:27.187104Z

Period
94.97 min
Inclination
97.4777°
Eccentricity
0.0001582
Mean motion
15.16346094 rev/d
Perigee alt
515.8 km
Apogee alt
518.0 km
Semi-major
6,895.0 km
B*
6.0193e-4
RAAN
272.6255°
Arg perigee
91.4903°
Mean anomaly
268.6511°
Rev number
4,224

§ Raw data

2025-180E1 65263U 25180E   26145.23850911  .00011618  00000+0  60193-3 0  99932 65263  97.4777 272.6255 0001582  91.4903 268.6511 15.16346094 42246

JSON: /api/v1/satellites/65263 · /tle

For live sub-satellite position, see the globe view (requires WebGL).

§ Visibility from observer

Set your observer location to see the next 7 days of passes ≥ 10°. The values pass through the URL so the page stays shareable.

No JS? Fill the form by hand. The geolocation button needs JavaScript.